Regional Weather Roundup
Issued by NWS Mobile, AL

Home | Current Version | Previous Version | Text Only | Print | Product List | Glossary On
Versions: 1 2 3 4 5 6 7 8 9 10 11 12 13 14 15 16 17 18 19 20 21 22 23 24 25 26 27 28 29 30 31 32 33 34 35 36 37 38 39 40 41 42 43 44 45 46 47 48 49 50
000
ASUS44 KMOB 050816
RWRMOB
REGIONAL WEATHER ROUNDUP
NATIONAL WEATHER SERVICE MOBILE AL
300 AM CDT SUN JUL 05 2015

ALZ061>064-050900-
COASTAL ALABAMA


CITY           SKY/WX    TMP DP  RH WIND       PRES   REMARKS
MOBILE REG APT CLOUDY    74  71  91 SE3       30.09S
BROOKLEY FIELD CLOUDY    75  74  96 CALM      30.09F FOG
GULF SHORES    CLOUDY    74  73  96 CALM      30.07F FOG

$$

ALZ051>060-050900-
INTERIOR SOUTHWEST AND SOUTH CENTRAL ALABAMA


CITY           SKY/WX    TMP DP  RH WIND       PRES   REMARKS
ANDALUSIA/OPP  CLOUDY    74  70  87 CALM      30.10S
EVERGREEN      MOCLDY    71  69  93 CALM      30.09F
FLORALA        CLOUDY    71  68  90 CALM      30.12R
GREENVILLE     FAIR      70  67  90 CALM      30.09F

$$

FLZ001>006-050900-
WESTERN FLORIDA PANHANDLE


CITY           SKY/WX    TMP DP  RH WIND       PRES   REMARKS
CRESTVIEW      CLOUDY    71  70  96 CALM      30.11R FOG
DESTIN         MOCLDY    77  73  87 SE3       30.08F
DUKE FIELD     FAIR      72  69  89 CALM      30.09S
MARY ESTHER    CLOUDY    74  69  84 CALM      30.07F
MILTON         CLOUDY    74  70  87 CALM      30.09S
PENSACOLA      CLOUDY    76  74  93 CALM      30.08S
NAS PENSACOLA  CLOUDY    76  72  87 CALM      30.07F FOG
VALPARAISO     CLOUDY    75  70  84 VRB1      30.09S

$$

...MARINE OBSERVATIONS...

STATION/POSITION TIME  SKY/WX   TEMP    WIND        PRES    VSBY
                                AIR SEA DIR/SP/G
                 (UTC)          (F)     (DEG/KT/KT) (MB)    (MI)
PASCAGOULA       0700            79      90/  3/  3 1018.1F
PETIT BOIS ISL   0700            85     150/  7/  8 1018.7F
E DAUPHIN ISLAND 0800            82     170/  6/  7 1018.0F
MIDDLE BAY LIGHT 0700            77     110/  6     1018.3F
USCG MOBILE BAY  0700            78 85  150/  2/  4 1017.7F
STATE DOCKS      0700            79 86              1018.5F
MEAHER PARK      0800            76     120/  3     1018.3F
FORT MORGAN      0700            81     180/  7/  8 1018.1F
12 S ORANGE BCH  0750            82 83  210/  6/  6 1017.7F
WVE H/P(F/S)=  2/ 3

PENSACOLA BAY    0700            80 85  120/  1/  3 1019.0F
64 S DAUPHIN ISL 0750            84 86  180/ 10/ 12 1018.5F
WVE H/P(F/S)=  2/ 5

67 S FORT MORGAN 0730            83     180/ 12     1018.3F
115 SE PENSACOLA 0750            84 85  190/  8/ 10 1018.9F
WVE H/P(F/S)=  2/ 5

MID GULF/42001   0750            84 85  120/ 12/ 14 1018.5F
WVE H/P(F/S)=  2/ 7

EAST GULF/42003  0750            85 86  110/ 10/ 12 1018.2F
WVE H/P(F/S)=  3/ 9


$$

...NEARBY LOCATIONS

CITY           SKY/WX    TMP DP  RH WIND       PRES   REMARKS
GULFPORT       MOCLDY    77  74  90 CALM      30.06S
BILOXI         MOCLDY    80  75  85 CALM      30.06F
PASCAGOULA     CLOUDY    74  73  97 CALM      30.07S FOG
HATTIESBURG    LGT RAIN  73  71  93 CALM      30.09R
LAUREL         CLOUDY    72  70  94 CALM      30.09F
MERIDIAN       CLOUDY    70  69  97 S8        30.08S
MERIDIAN NAS   MOCLDY    71  69  93 NE3       30.07F
MONTGOMERY     PTCLDY    71  68  90 CALM      30.09F
MAXWELL AFB    MOCLDY    70  69  96 W3        30.09S
TROY           MOCLDY    69  68  96 CALM      30.11S
FORT RUCKER    MOCLDY    70  68  93 CALM      30.09S
DALEVILLE      MOCLDY    70  69  99 CALM      30.10S
DOTHAN         MOCLDY    70  69  97 CALM        N/A

$$

...OTHER SURROUNDING LOCATIONS...

CITY           SKY/WX    TMP DP  RH WIND       PRES   REMARKS
BIRMINGHAM     CLOUDY    71  68  90 SW10      30.11R
TUSCALOOSA     CLOUDY    71  69  93 SW5       30.09R
COLUMBUS GA    PTCLDY    69  67  93 CALM      30.10R
PANAMA CITY    NOT AVBL
TALLAHASSEE    CLEAR     73  70  90 CALM      30.09S
BATON ROUGE    LGT RAIN  74  72  93 E5        30.05S FOG
NEW ORLEANS    MOCLDY    80  73  79 SE6       30.06S
SLIDELL        MOCLDY    74  73  97 CALM      30.06S
JACKSON        CLOUDY    72  70  93 SE6       30.07S
MCCOMB         CLOUDY    71  71 100 CALM      30.08R

$$

...SURROUNDING MARINE OBSERVATIONS...

STATION/POSITION TIME  SKY/WX   TEMP    WIND        PRES    VSBY
                                AIR SEA DIR/SP/G
                 (UTC)          (F)     (DEG/KT/KT) (MB)    (MI)
WAVELAND         0700            81 83  190/  5/  8 1018.4F
PASCAGOULA RGN A 0700            79     140/  4/  5 1017.8F
PASCAGOULA PORT  0700               83                N/A
GRAND ISLE       0700            83 87  220/  4/  5 1018.2F
SOUTHWEST PASS   0800            83     190/  8/  9 1018.6S
PILOT STATION E  0700            83 82  190/  6/  7 1018.7F
SHELL BEACH      0700            80 85  130/  6/  7 1017.7F
PANAMA CITY      0700            76 86   40/  4/  6 1018.5F
APALACHICOLA     0700            83 85  210/  6/  8 1018.3F
TYNDALL TOWER C  0800            82     200/  5/  6 1018.9R
S APLCHCLA/42036 0750            84 86  160/  6/  8 1018.9F
WVE H/P(F/S)=  1/ 8


$$




USA.gov is the U.S. government's official web portal to all federal, state and local government web resources and services.